"startDT [UTC]","vpos","CH4 [ppm]","stdev(CH4) [ppm]","CO2 [ppm]","stdev(CO2) [ppm]","H2O_reported [%]","stdev(H2O_reported)","CavityPressure [torr]","CavityTemp [C]","OutletValve","CH4_dry [ppm]","CO2_dry [ppm]","DasTemp [C]","EtalonTemp [C]","WarmBoxTemp [C]","MPVPosition","T_ECpre [C]","T_EC1 [C]","T_EC2 [C]","p_inlet [hPa]","p_in [hPa]","p_out [hPa]","T_inlet [C]","RH_inlet [%]","dwpt_inlet [C]","T_vent [C]","RH_vent [%]","dwpt_vent [C]","flow_vent [l min-1]","flow_inlet [l min-1]","dwpt_sample [C]","T_room [C]"
2015-09-06 00:00:00,0.0,2.01458,0.00075,398.108,0.075,1.2923,0.0016,139.998,45.000,31743.91290,2.04134,404.560,35.571,45.067,45.000,0.00,0.10,-272.73,-272.79,-14,530,-944,25.9,30.5,7.2,25.7,31.4,7.5,5.73,1.76,5.9,29.6
2015-09-06 00:01:00,0.0,2.01403,0.00037,397.999,0.092,1.2937,0.0017,139.999,45.000,31745.42712,2.04073,404.463,35.572,45.067,45.000,0.00,0.10,-272.73,-272.79,-15,530,-944,25.9,30.6,7.2,25.7,31.4,7.5,5.73,1.94,5.9,29.6
2015-09-06 00:02:00,0.0,2.01369,0.00048,397.796,0.052,1.2970,0.0027,139.999,45.000,31745.43814,2.04056,404.273,35.566,45.067,45.000,0.00,0.10,-272.74,-272.80,-15,530,-944,25.9,30.7,7.3,25.7,31.5,7.5,5.73,2.05,5.9,29.6
2015-09-06 00:03:00,0.0,2.01260,0.00060,397.741,0.117,1.2965,0.0025,140.000,45.000,31745.21689,2.03940,404.208,35.565,45.067,45.000,0.00,0.10,-272.73,-272.80,-15,530,-944,25.9,30.7,7.3,25.7,31.5,7.5,5.73,1.93,5.9,29.6
2015-09-06 00:04:00,0.0,2.01240,0.00043,397.720,0.189,1.2929,0.0032,139.997,45.000,31743.41491,2.03910,404.180,35.563,45.067,45.000,0.00,0.10,-272.73,-272.79,-14,530,-944,25.8,30.5,7.2,25.7,31.4,7.5,5.73,1.76,5.9,29.7
2015-09-06 00:05:00,0.0,2.01242,0.00066,397.441,0.113,1.2873,0.0027,140.000,45.000,31744.61445,2.03898,403.859,35.563,45.067,45.000,0.00,0.10,-272.73,-272.80,-14,530,-944,25.9,30.4,7.2,25.7,31.3,7.4,5.73,1.82,5.9,29.6
2015-09-06 00:06:00,0.0,2.01130,0.00145,397.176,0.214,1.2835,0.0024,139.999,45.000,31746.51140,2.03788,403.576,35.563,45.067,45.000,0.00,0.10,-272.74,-272.80,-14,530,-944,25.9,30.3,7.1,25.7,31.2,7.4,5.73,2.00,5.9,29.6
2015-09-06 00:07:00,0.0,2.00893,0.00054,396.781,0.115,1.2782,0.0019,139.999,45.000,31747.36036,2.03536,403.150,35.563,45.067,45.000,0.00,0.10,-272.73,-272.79,-15,530,-944,25.8,30.2,7.0,25.7,31.1,7.3,5.73,2.02,5.9,29.6
2015-09-06 00:08:00,0.0,2.00777,0.00061,396.482,0.050,1.2738,0.0030,139.997,45.000,31743.68586,2.03397,402.814,35.564,45.067,45.000,0.00,0.10,-272.73,-272.80,-15,530,-944,25.9,30.1,7.0,25.7,31.0,7.3,5.73,1.86,5.9,29.6
2015-09-06 00:09:00,0.0,2.00760,0.00094,396.409,0.125,1.2698,0.0025,139.998,45.000,31743.00622,2.03377,402.722,35.563,45.067,45.000,0.00,0.10,-272.74,-272.80,-15,530,-944,25.8,30.0,6.9,25.7,30.9,7.2,5.73,1.75,5.9,29.6
2015-09-06 00:10:00,0.0,2.00641,0.00072,396.210,0.099,1.2697,0.0024,140.001,45.000,31744.79486,2.03257,402.521,35.562,45.067,45.000,0.00,0.10,-272.74,-272.79,-14,530,-944,25.8,30.0,6.9,25.7,30.9,7.2,5.73,1.88,5.9,29.6
2015-09-06 00:11:00,0.0,2.00523,0.00067,396.026,0.086,1.2650,0.0028,139.998,45.000,31744.06166,2.03135,402.310,35.560,45.067,45.000,0.00,0.10,-272.73,-272.79,-14,530,-943,25.8,29.9,6.9,25.7,30.8,7.2,5.73,2.04,5.9,29.6
2015-09-06 00:12:00,0.0,2.00403,0.00056,395.893,0.070,1.2613,0.0018,139.998,45.000,31746.05339,2.02995,402.150,35.548,45.067,45.000,0.00,0.10,-272.73,-272.80,-14,530,-943,25.8,29.8,6.8,25.7,30.7,7.1,5.73,1.98,5.9,29.6
2015-09-06 00:13:00,0.0,2.00422,0.00072,395.916,0.131,1.2618,0.0024,140.000,45.000,31746.90353,2.03013,402.176,35.556,45.067,45.000,0.00,0.10,-272.73,-272.80,-14,530,-943,25.8,29.8,6.8,25.6,30.7,7.1,5.73,1.79,5.9,29.6
2015-09-06 00:14:00,0.0,2.00354,0.00040,395.785,0.079,1.2603,0.0018,140.000,45.000,31746.02656,2.02944,402.039,35.563,45.067,45.000,0.00,0.10,-272.73,-272.79,-15,530,-943,25.8,29.8,6.8,25.7,30.6,7.1,5.73,1.77,5.9,29.6
2015-09-06 00:15:00,0.0,2.00395,0.00046,395.735,0.067,1.2656,0.0029,140.000,45.000,31745.29864,2.02997,402.011,35.562,45.067,45.000,0.00,0.10,-272.73,-272.80,-15,530,-944,25.8,29.9,6.9,25.7,30.7,7.1,5.73,1.96,5.9,29.5
2015-09-06 00:16:00,0.0,2.00355,0.00048,395.672,0.088,1.2678,0.0025,140.001,45.000,31745.73756,2.02958,401.958,35.559,45.067,45.000,0.00,0.10,-272.73,-272.80,-14,530,-944,25.8,30.0,6.9,25.7,30.8,7.2,5.73,2.05,5.9,29.5
2015-09-06 00:17:00,0.0,2.00317,0.00054,395.691,0.123,1.2647,0.0021,139.997,45.000,31746.93310,2.02917,401.964,35.564,45.067,45.000,0.00,0.10,-272.73,-272.80,-14,530,-944,25.8,29.9,6.9,25.7,30.8,7.1,5.73,1.89,5.9,29.6
2015-09-06 00:18:00,0.0,2.00306,0.00054,395.714,0.087,1.2637,0.0033,139.995,45.000,31745.37898,2.02901,401.985,35.563,45.067,45.000,0.00,0.10,-272.73,-272.80,-14,530,-944,25.8,29.9,6.9,25.7,30.8,7.1,5.73,1.75,5.9,29.6
2015-09-06 00:19:00,0.0,2.00349,0.00069,395.753,0.144,1.2635,0.0023,139.999,45.000,31746.16666,2.02945,402.016,35.563,45.067,45.000,0.00,0.10,-272.74,-272.80,-14,530,-944,25.8,29.9,6.9,25.7,30.7,7.1,5.73,1.85,5.9,29.6
2015-09-06 00:20:00,0.0,2.00492,0.00097,396.128,0.245,1.2633,0.0024,139.999,45.000,31748.23268,2.03079,402.387,35.569,45.067,45.000,0.00,0.10,-272.73,-272.80,-15,530,-944,25.8,29.9,6.9,25.7,30.7,7.1,5.73,2.03,5.9,29.6
2015-09-06 00:21:00,0.0,2.00361,0.00163,395.877,0.427,1.2675,0.0027,140.000,45.000,31750.24194,2.02976,402.181,35.566,45.067,45.000,0.00,0.10,-272.73,-272.79,-15,530,-944,25.8,30.0,6.9,25.7,30.8,7.2,5.73,2.00,5.9,29.5
2015-09-06 00:22:00,0.0,2.00418,0.00066,396.049,0.224,1.2624,0.0025,139.998,45.000,31748.23354,2.03008,402.307,35.563,45.067,45.000,0.00,0.10,-272.73,-272.80,-15,530,-944,25.9,29.9,6.9,25.7,30.7,7.1,5.73,1.82,5.9,29.6
2015-09-06 00:23:00,0.0,2.00443,0.00082,396.313,0.255,1.2668,0.0031,139.999,45.000,31746.34545,2.03044,402.596,35.563,45.067,45.000,0.00,0.10,-272.73,-272.80,-14,530,-944,25.8,30.0,6.9,25.6,30.8,7.1,5.73,1.76,5.8,29.6
2015-09-06 00:24:00,0.0,2.00455,0.00115,396.558,0.479,1.2715,0.0023,140.000,45.000,31745.71897,2.03077,402.894,35.563,45.067,45.000,0.00,0.10,-272.73,-272.79,-14,530,-944,25.8,30.1,7.0,25.7,30.9,7.2,5.73,1.94,5.9,29.6
2015-09-06 00:25:00,0.0,2.00246,0.00043,395.995,0.199,1.2716,0.0021,139.998,45.000,31745.40093,2.02858,402.299,35.558,45.067,45.000,0.00,0.10,-272.73,-272.79,-14,530,-944,25.8,30.1,7.0,25.6,30.9,7.2,5.73,2.05,5.9,29.6
2015-09-06 00:26:00,0.0,2.00211,0.00040,395.784,0.213,1.2741,0.0024,140.000,45.000,31745.03424,2.02831,402.116,35.553,45.067,45.000,0.00,0.10,-272.74,-272.80,-15,530,-944,25.8,30.2,7.0,25.6,31.0,7.2,5.73,1.93,5.8,29.6
2015-09-06 00:27:00,0.0,2.00208,0.00030,395.718,0.083,1.2735,0.0025,140.002,45.000,31745.34633,2.02820,402.039,35.536,45.067,45.000,0.00,0.10,-272.73,-272.80,-15,530,-944,25.8,30.1,7.0,25.7,31.0,7.3,5.73,1.76,5.9,29.6
2015-09-06 00:28:00,0.0,2.00215,0.00041,395.573,0.092,1.2717,0.0022,140.000,45.000,31746.12649,2.02826,401.879,35.544,45.068,45.000,0.00,0.10,-272.73,-272.79,-15,530,-944,25.8,30.1,7.0,25.6,30.9,7.2,5.73,1.81,5.9,29.6
2015-09-06 00:29:00,0.0,2.00279,0.00060,395.835,0.218,1.2672,0.0026,139.999,45.000,31745.26313,2.02883,402.117,35.550,45.067,45.000,0.00,0.10,-272.74,-272.80,-14,530,-944,25.8,30.0,6.9,25.6,30.9,7.2,5.73,2.00,5.8,29.6
2015-09-06 00:30:00,0.0,2.00209,0.00039,395.976,0.126,1.2648,0.0020,140.001,45.000,31746.00416,2.02805,402.259,35.548,45.067,45.000,0.00,0.10,-272.74,-272.80,-14,530,-944,25.8,29.9,6.9,25.6,30.8,7.1,5.73,2.03,5.9,29.6
2015-09-06 00:31:00,0.0,2.00213,0.00062,395.702,0.095,1.2631,0.0020,140.001,45.000,31744.16345,2.02805,401.968,35.535,45.067,45.000,0.00,0.10,-272.73,-272.80,-14,530,-944,25.8,29.9,6.9,25.7,30.7,7.1,5.73,1.86,5.8,29.6
2015-09-06 00:32:00,0.0,2.00257,0.00035,395.670,0.031,1.2603,0.0033,139.999,45.000,31742.05315,2.02845,401.918,35.562,45.067,45.000,0.00,0.10,-272.73,-272.80,-14,530,-944,25.8,29.8,6.8,25.6,30.7,7.1,5.73,1.75,5.9,29.6
2015-09-06 00:33:00,0.0,2.00248,0.00042,395.670,0.031,1.2565,0.0021,139.999,45.000,31743.50287,2.02827,401.901,35.545,45.067,45.000,0.00,0.10,-272.74,-272.80,-15,530,-944,25.8,29.8,6.8,25.6,30.6,7.0,5.73,1.88,5.9,29.6
2015-09-06 00:34:00,0.0,2.00221,0.00055,395.617,0.069,1.2588,0.0030,139.999,45.000,31743.93511,2.02808,401.859,35.517,45.067,45.000,0.00,0.10,-272.74,-272.79,-15,530,-944,25.8,29.8,6.8,25.6,30.6,7.1,5.73,2.04,5.9,29.6
2015-09-06 00:35:00,0.0,2.00167,0.00032,395.741,0.141,1.2663,0.0038,140.002,45.000,31743.61641,2.02766,402.017,35.507,45.067,45.000,0.00,0.10,-272.73,-272.80,-14,530,-944,25.8,30.0,6.9,25.6,30.8,7.1,5.73,1.98,5.8,29.6
2015-09-06 00:36:00,0.0,2.00060,0.00051,395.799,0.099,1.2643,0.0024,139.999,45.000,31742.71925,2.02654,402.072,35.505,45.067,45.000,0.00,0.10,-272.73,-272.80,-14,530,-944,25.8,30.0,6.9,25.6,30.8,7.1,5.73,1.79,5.8,29.6
2015-09-06 00:37:00,0.0,2.00073,0.00049,395.744,0.052,1.2621,0.0030,139.998,45.000,31744.66170,2.02665,402.003,35.507,45.067,45.000,0.00,0.10,-272.73,-272.79,-14,530,-944,25.8,29.9,6.8,25.6,30.7,7.1,5.73,1.77,5.8,29.6
2015-09-06 00:38:00,0.0,2.00064,0.00063,395.866,0.092,1.2615,0.0030,140.002,45.000,31743.87680,2.02651,402.122,35.508,45.068,45.000,0.00,0.10,-272.73,-272.80,-14,530,-944,25.8,29.9,6.9,25.6,30.7,7.1,5.73,1.96,5.8,29.6
2015-09-06 00:39:00,0.0,2.00159,0.00038,395.933,0.055,1.2592,0.0027,140.001,45.000,31741.82053,2.02740,402.180,35.511,45.067,45.000,0.00,0.10,-272.74,-272.80,-15,530,-944,25.8,29.9,6.8,25.6,30.7,7.1,5.73,2.06,5.8,29.6
2015-09-06 00:40:00,0.0,2.00026,0.00081,396.103,0.104,1.2622,0.0030,140.000,45.000,31742.48412,2.02620,402.370,35.525,45.067,45.000,0.00,0.10,-272.73,-272.80,-15,530,-944,25.8,30.0,6.9,25.6,30.7,7.1,5.73,1.91,5.8,29.6
2015-09-06 00:41:00,0.0,2.00012,0.00050,395.744,0.087,1.2692,0.0032,139.999,45.000,31743.19001,2.02611,402.041,35.527,45.067,45.000,0.00,0.10,-272.73,-272.79,-15,530,-944,25.8,30.1,6.9,25.6,30.9,7.2,5.73,1.76,5.9,29.6
2015-09-06 00:42:00,0.0,2.00019,0.00064,396.031,0.096,1.2659,0.0021,140.000,45.000,31744.18140,2.02620,402.313,35.510,45.067,45.000,0.00,0.10,-272.73,-272.80,-14,530,-944,25.8,30.0,6.9,25.6,30.9,7.2,5.73,1.83,5.8,29.6
2015-09-06 00:43:00,0.0,2.00034,0.00040,396.011,0.124,1.2686,0.0032,139.999,45.000,31743.71005,2.02633,402.312,35.520,45.067,45.000,0.00,0.10,-272.74,-272.80,-14,530,-944,25.8,30.1,6.9,25.6,30.9,7.1,5.73,2.01,5.8,29.6
2015-09-06 00:44:00,0.0,2.00089,0.00047,395.843,0.042,1.2647,0.0032,140.002,45.000,31743.40822,2.02682,402.119,35.537,45.067,45.000,0.00,0.10,-272.73,-272.80,-14,530,-944,25.8,30.0,6.9,25.6,30.9,7.1,5.73,2.02,5.8,29.6
2015-09-06 00:45:00,0.0,2.00096,0.00036,395.900,0.065,1.2609,0.0014,140.000,45.000,31742.66431,2.02684,402.152,35.508,45.067,45.000,0.00,0.10,-272.73,-272.80,-14,530,-944,25.8,29.9,6.8,25.6,30.7,7.1,5.73,1.84,5.8,29.6
2015-09-06 00:46:00,0.0,2.00011,0.00065,395.985,0.101,1.2644,0.0022,139.999,45.000,31742.94997,2.02612,402.256,35.514,45.067,45.000,0.00,0.10,-272.74,-272.80,-15,530,-944,25.8,30.0,6.9,25.6,30.8,7.1,5.73,1.75,5.8,29.6
2015-09-06 00:47:00,0.0,1.99989,0.00089,396.076,0.178,1.2688,0.0024,140.000,45.000,31745.92446,2.02582,402.380,35.519,45.067,45.000,0.00,0.10,-272.73,-272.79,-15,530,-944,25.8,30.1,6.9,25.6,30.9,7.1,5.73,1.90,5.8,29.6
2015-09-06 00:48:00,0.0,2.00126,0.00045,395.903,0.039,1.2623,0.0035,140.001,45.000,31746.21149,2.02717,402.167,35.525,45.067,45.000,0.00,0.10,-272.73,-272.79,-14,530,-944,25.8,29.9,6.9,25.6,30.8,7.1,5.73,2.05,5.8,29.6
2015-09-06 00:49:00,0.0,2.00091,0.00046,395.968,0.055,1.2574,0.0022,139.996,45.000,31744.93212,2.02672,402.208,35.559,45.067,45.000,0.00,0.10,-272.73,-272.80,-14,530,-944,25.8,29.8,6.8,25.6,30.7,7.0,5.73,1.97,5.8,29.6
2015-09-06 00:50:00,0.0,2.00050,0.00026,395.986,0.043,1.2533,0.0017,140.001,45.000,31746.02568,2.02622,402.201,35.563,45.067,45.000,0.00,0.10,-272.73,-272.80,-14,530,-944,25.8,29.7,6.7,25.6,30.6,7.0,5.73,1.79,5.8,29.5
2015-09-06 00:51:00,0.0,2.00034,0.00048,395.899,0.064,1.2561,0.0017,140.001,45.000,31744.28353,2.02607,402.132,35.564,45.067,45.000,0.00,0.10,-272.73,-272.79,-14,530,-944,25.8,29.8,6.8,25.6,30.6,7.0,5.73,1.78,5.8,29.5
2015-09-06 00:52:00,0.0,2.00125,0.00053,395.883,0.039,1.2591,0.0029,140.004,45.000,31745.14144,2.02710,402.129,35.567,45.067,45.000,0.00,0.10,-272.74,-272.79,-15,530,-944,25.8,29.9,6.8,25.6,30.7,7.0,5.73,1.97,5.8,29.5
2015-09-06 00:53:00,0.0,2.00047,0.00047,395.874,0.059,1.2616,0.0022,140.002,45.000,31744.53967,2.02635,402.133,35.565,45.067,45.000,0.00,0.10,-272.74,-272.80,-15,530,-944,25.8,29.9,6.9,25.6,30.8,7.1,5.73,2.05,5.8,29.6
2015-09-06 00:54:00,0.0,2.00035,0.00053,395.885,0.043,1.2618,0.0016,139.999,45.000,31742.25841,2.02624,402.147,35.567,45.067,45.000,0.00,0.10,-272.73,-272.80,-15,530,-944,25.8,29.9,6.9,25.6,30.8,7.1,5.73,1.90,5.8,29.6
2015-09-06 00:55:00,0.0,2.00024,0.00044,395.896,0.041,1.2636,0.0022,140.001,45.000,31743.12038,2.02616,402.164,35.564,45.067,45.000,0.00,0.10,-272.73,-272.79,-14,530,-944,25.8,30.0,6.9,25.6,30.8,7.1,5.73,1.75,5.8,29.6
2015-09-06 00:56:00,0.0,1.99990,0.00047,395.938,0.060,1.2606,0.0021,139.996,45.000,31741.19870,2.02571,402.194,35.562,45.067,45.000,0.00,0.10,-272.73,-272.80,-14,530,-944,25.8,29.9,6.9,25.6,30.8,7.1,5.73,1.84,5.8,29.6
2015-09-06 00:57:00,0.0,1.99997,0.00054,395.852,0.096,1.2653,0.0029,140.001,45.000,31742.70654,2.02594,402.129,35.562,45.067,45.000,0.00,0.10,-272.74,-272.80,-14,530,-944,25.8,30.1,6.9,25.6,30.8,7.1,5.73,2.03,5.8,29.6
2015-09-06 00:58:00,0.0,1.99956,0.00039,395.893,0.048,1.2650,0.0020,140.001,45.000,31744.74208,2.02551,402.169,35.563,45.067,45.000,0.00,0.10,-272.73,-272.80,-14,530,-944,25.8,30.0,6.9,25.6,30.9,7.1,5.73,2.01,5.8,29.6
2015-09-06 00:59:00,0.0,1.99902,0.00042,396.013,0.068,1.2614,0.0019,140.000,45.000,31744.03938,2.02488,402.271,35.563,45.067,45.000,0.00,0.10,-272.73,-272.80,-15,530,-944,25.8,29.9,6.8,25.6,30.8,7.1,5.73,1.82,5.8,29.5
2015-09-06 01:00:00,0.0,1.99902,0.00036,396.156,0.136,1.2586,0.0016,140.000,45.000,31743.99446,2.02481,402.402,35.566,45.067,45.000,0.00,0.10,-272.74,-272.81,-15,530,-944,25.8,29.9,6.8,25.6,30.7,7.1,5.73,1.76,5.8,29.6
2015-09-06 01:01:00,0.0,1.99934,0.00077,396.166,0.136,1.2588,0.0027,140.000,45.000,31745.73051,2.02510,402.412,35.556,45.067,45.000,0.00,0.10,-272.74,-272.79,-14,530,-944,25.8,29.9,6.8,25.6,30.7,7.1,5.73,1.93,5.8,29.5
2015-09-06 01:02:00,0.0,1.99971,0.00066,396.176,0.164,1.2578,0.0024,139.998,45.000,31742.65884,2.02551,402.425,35.555,45.067,45.000,0.00,0.10,-272.74,-272.79,-14,530,-944,25.8,29.9,6.8,25.6,30.7,7.1,5.73,2.05,5.8,29.5
2015-09-06 01:03:00,0.0,1.99932,0.00029,396.066,0.098,1.2570,0.0019,139.997,45.000,31741.17537,2.02511,402.309,35.555,45.067,45.000,0.00,0.10,-272.74,-272.80,-14,530,-944,25.8,29.9,6.8,25.6,30.7,7.0,5.73,1.94,5.8,29.5
2015-09-06 01:04:00,0.0,1.99915,0.00042,395.990,0.087,1.2599,0.0029,140.000,45.000,31742.17436,2.02498,402.236,35.563,45.067,45.000,0.00,0.10,-272.73,-272.80,-14,530,-944,25.8,29.9,6.8,25.6,30.7,7.1,5.73,1.77,5.8,29.6
2015-09-06 01:05:00,0.0,1.99905,0.00050,395.974,0.088,1.2617,0.0023,140.001,45.000,31743.22729,2.02492,402.237,35.558,45.067,45.000,0.00,0.10,-272.73,-272.79,-15,530,-944,25.8,30.0,6.9,25.6,30.8,7.1,5.73,1.80,5.8,29.5
2015-09-06 01:06:00,0.0,1.99903,0.00056,396.051,0.113,1.2623,0.0021,139.997,45.000,31741.52884,2.02485,402.316,35.559,45.067,45.000,0.00,0.10,-272.73,-272.79,-15,530,-944,25.8,30.0,6.9,25.6,30.8,7.1,5.73,1.98,5.8,29.5
2015-09-06 01:07:00,0.0,1.99964,0.00087,396.187,0.186,1.2622,0.0023,140.002,45.000,31744.07771,2.02554,402.455,35.563,45.067,45.000,0.00,0.10,-272.74,-272.80,-14,530,-944,25.7,30.0,6.8,25.6,30.8,7.1,5.73,2.04,5.8,29.5
2015-09-06 01:08:00,0.0,1.99960,0.00056,396.213,0.104,1.2650,0.0021,139.998,45.000,31741.99645,2.02555,402.495,35.560,45.067,45.000,0.00,0.10,-272.72,-272.80,-14,530,-944,25.8,30.1,6.9,25.6,30.9,7.1,5.73,1.88,5.8,29.5
2015-09-06 01:09:00,0.0,1.99966,0.00083,396.128,0.144,1.2666,0.0022,140.000,45.000,31744.47964,2.02559,402.413,35.552,45.067,45.000,0.00,0.10,-272.73,-272.80,-14,530,-944,25.7,30.1,6.9,25.6,30.9,7.1,5.73,1.75,5.8,29.5
2015-09-06 01:10:00,0.0,1.99941,0.00103,396.127,0.161,1.2673,0.0028,139.999,45.000,31746.28685,2.02546,402.424,35.541,45.067,45.000,0.00,0.10,-272.74,-272.80,-14,530,-944,25.8,30.2,7.0,25.6,31.0,7.2,5.73,1.86,5.8,29.6
2015-09-06 01:11:00,0.0,1.99904,0.00059,396.105,0.090,1.2695,0.0029,140.001,45.000,31746.98716,2.02502,402.406,35.544,45.067,45.000,0.00,0.10,-272.73,-272.79,-15,530,-944,25.8,30.2,7.0,25.6,31.0,7.2,5.73,2.03,5.8,29.6
2015-09-06 01:12:00,0.0,1.99887,0.00092,396.122,0.114,1.2683,0.0020,140.000,45.000,31744.64019,2.02486,402.418,35.543,45.067,45.000,0.00,0.10,-272.73,-272.80,-15,530,-944,25.8,30.2,7.0,25.6,31.0,7.2,5.73,2.00,5.8,29.6
2015-09-06 01:13:00,0.0,2.00035,0.00116,396.335,0.149,1.2676,0.0021,139.998,45.000,31744.74986,2.02639,402.635,35.509,45.067,45.000,0.00,0.10,-272.74,-272.80,-15,530,-944,25.8,30.1,6.9,25.6,31.0,7.2,5.73,1.82,5.8,29.6
2015-09-06 01:14:00,0.0,2.00042,0.00051,396.246,0.083,1.2712,0.0031,140.000,45.000,31744.15010,2.02643,402.559,35.526,45.067,45.000,0.00,0.10,-272.73,-272.79,-14,530,-944,25.8,30.2,7.0,25.6,31.0,7.2,5.73,1.76,5.8,29.6
2015-09-06 01:15:00,0.0,2.00129,0.00067,396.318,0.076,1.2747,0.0021,140.002,45.000,31745.87699,2.02740,402.648,35.523,45.068,45.000,0.00,0.10,-272.74,-272.79,-14,530,-944,25.8,30.3,7.0,25.6,31.2,7.3,5.73,1.92,5.8,29.6
2015-09-06 01:16:00,0.0,2.00261,0.00051,396.471,0.094,1.2745,0.0025,140.003,45.000,31745.97525,2.02879,402.810,35.509,45.067,45.000,0.00,0.10,-272.74,-272.80,-14,530,-944,25.8,30.4,7.1,25.6,31.2,7.3,5.73,2.05,5.8,29.6
2015-09-06 01:17:00,0.0,2.00196,0.00053,396.424,0.101,1.2756,0.0023,140.000,45.000,31746.03996,2.02817,402.761,35.514,45.067,45.000,0.00,0.10,-272.73,-272.80,-14,530,-944,25.7,30.4,7.0,25.6,31.2,7.3,5.73,1.95,5.8,29.6
2015-09-06 01:18:00,0.0,2.00223,0.00051,396.537,0.075,1.2733,0.0021,139.999,45.000,31745.24802,2.02836,402.866,35.542,45.067,45.000,0.00,0.10,-272.73,-272.79,-15,530,-944,25.8,30.3,7.0,25.6,31.2,7.2,5.73,1.77,5.8,29.6
2015-09-06 01:19:00,0.0,2.00289,0.00062,396.635,0.063,1.2726,0.0023,139.998,45.000,31743.39479,2.02901,402.961,35.562,45.067,45.000,0.00,0.10,-272.73,-272.79,-15,530,-944,25.7,30.3,7.0,25.6,31.1,7.2,5.73,1.79,5.8,29.5
2015-09-06 01:20:00,0.0,2.00263,0.00052,396.580,0.105,1.2732,0.0032,139.997,45.000,31743.98705,2.02880,402.916,35.563,45.067,45.000,0.00,0.10,-272.74,-272.80,-14,530,-944,25.7,30.3,7.0,25.6,31.1,7.2,5.73,1.99,5.8,29.5
2015-09-06 01:21:00,0.0,2.00250,0.00054,396.425,0.068,1.2810,0.0022,140.000,45.000,31745.17733,2.02883,402.794,35.563,45.067,45.000,0.00,0.10,-272.73,-272.80,-14,530,-944,25.7,30.5,7.1,25.6,31.3,7.3,5.73,2.05,5.8,29.5
2015-09-06 01:22:00,0.0,2.00162,0.00051,396.481,0.079,1.2816,0.0021,139.998,45.000,31744.59993,2.02801,402.850,35.563,45.067,45.000,0.00,0.10,-272.72,-272.80,-14,530,-944,25.8,30.5,7.1,25.6,31.4,7.4,5.73,1.88,5.8,29.5
2015-09-06 01:23:00,0.0,2.00037,0.00090,396.489,0.089,1.2803,0.0024,139.999,45.000,31743.19103,2.02662,402.857,35.564,45.067,45.000,0.00,0.10,-272.74,-272.80,-14,530,-944,25.7,30.5,7.1,25.6,31.3,7.3,5.73,1.75,5.8,29.5
2015-09-06 01:24:00,0.0,2.00129,0.00041,396.402,0.040,1.2833,0.0028,139.999,45.000,31741.34460,2.02760,402.781,35.563,45.067,45.000,0.00,0.10,-272.73,-272.80,-15,530,-944,25.7,30.6,7.1,25.6,31.4,7.4,5.73,1.86,5.8,29.6
2015-09-06 01:25:00,0.0,2.00068,0.00072,396.438,0.061,1.2887,0.0022,139.999,45.000,31741.91924,2.02716,402.847,35.566,45.067,45.000,0.00,0.10,-272.73,-272.79,-15,530,-944,25.7,30.7,7.2,25.6,31.5,7.4,5.73,2.03,5.8,29.5
2015-09-06 01:26:00,0.0,2.00174,0.00056,396.359,0.064,1.2894,0.0021,140.000,45.000,31742.09964,2.02826,402.771,35.567,45.067,45.000,0.00,0.10,-272.74,-272.80,-15,530,-944,25.7,30.7,7.2,25.6,31.6,7.4,5.73,2.00,5.8,29.5
2015-09-06 01:27:00,0.0,2.00128,0.00087,396.448,0.066,1.2894,0.0019,140.000,45.000,31741.57331,2.02768,402.860,35.570,45.067,45.000,0.00,0.10,-272.74,-272.80,-14,530,-944,25.7,30.7,7.2,25.6,31.6,7.4,5.73,1.82,5.8,29.5
2015-09-06 01:28:00,0.0,2.00172,0.00062,396.456,0.036,1.2921,0.0026,139.999,45.000,31741.52229,2.02829,402.880,35.564,45.067,45.000,0.00,0.10,-272.73,-272.79,-14,530,-944,25.7,30.8,7.2,25.6,31.6,7.5,5.73,1.77,5.8,29.5
2015-09-06 01:29:00,0.0,2.00182,0.00062,396.433,0.056,1.2930,0.0018,140.000,45.000,31742.56310,2.02839,402.866,35.563,45.067,45.000,0.00,0.10,-272.73,-272.79,-14,530,-944,25.7,30.8,7.2,25.5,31.7,7.5,5.73,1.93,5.8,29.5
2015-09-06 01:30:00,0.0,2.00148,0.00093,396.334,0.080,1.2953,0.0036,140.000,45.000,31741.47116,2.02818,402.774,35.556,45.067,45.000,0.00,0.10,-272.74,-272.80,-14,530,-944,25.7,30.9,7.3,25.6,31.7,7.5,5.73,2.05,5.8,29.5
2015-09-06 01:31:00,0.0,2.00064,0.00167,396.448,0.046,1.3003,0.0019,140.001,45.000,31741.45306,2.02727,402.917,35.526,45.067,45.000,0.00,0.10,-272.73,-272.80,-15,530,-944,25.7,31.0,7.3,25.5,31.9,7.5,5.73,1.94,5.8,29.5
2015-09-06 01:32:00,0.0,2.00213,0.00059,396.363,0.038,1.3001,0.0017,139.999,45.000,31742.32452,2.02887,402.828,35.508,45.067,45.000,0.00,0.10,-272.72,-272.79,-15,530,-944,25.7,31.0,7.3,25.6,31.9,7.6,5.73,1.77,5.8,29.5
2015-09-06 01:33:00,0.0,1.99966,0.00088,396.397,0.052,1.3022,0.0021,140.000,45.000,31741.41642,2.02647,402.875,35.501,45.067,45.000,0.00,0.10,-272.73,-272.80,-14,530,-944,25.7,31.1,7.4,25.5,31.9,7.6,5.73,1.80,5.8,29.5
2015-09-06 01:34:00,0.0,1.99890,0.00090,396.582,0.120,1.3043,0.0025,140.000,45.000,31739.24378,2.02565,403.070,35.500,45.068,45.000,0.00,0.10,-272.74,-272.80,-14,530,-944,25.7,31.2,7.4,25.5,32.0,7.6,5.73,2.00,5.8,29.5
2015-09-06 01:35:00,0.0,1.99902,0.00056,396.661,0.036,1.3028,0.0027,139.996,45.000,31739.57008,2.02580,403.148,35.501,45.068,45.000,0.00,0.10,-272.73,-272.79,-14,530,-944,25.7,31.1,7.4,25.6,32.0,7.6,5.73,2.04,5.8,29.5
2015-09-06 01:36:00,0.0,1.99664,0.00158,396.483,0.151,1.3022,0.0022,139.998,45.000,31739.13206,2.02351,402.971,35.500,45.068,45.000,0.00,0.10,-272.73,-272.80,-14,530,-944,25.7,31.1,7.3,25.5,31.9,7.6,5.73,1.85,5.8,29.5
2015-09-06 01:37:00,0.0,1.99355,0.00263,396.230,0.370,1.3013,0.0026,139.999,45.000,31739.77573,2.02029,402.709,35.493,45.068,45.000,0.00,0.10,-272.73,-272.81,-15,530,-944,25.7,31.0,7.3,25.6,31.9,7.6,5.73,1.74,5.8,29.5
2015-09-06 01:38:00,0.0,1.99170,0.00149,396.025,0.228,1.2951,0.0030,140.002,45.000,31742.17004,2.01811,402.454,35.500,45.068,45.000,0.00,0.10,-272.73,-272.79,-15,530,-944,25.7,30.9,7.3,25.5,31.8,7.5,5.73,1.89,5.8,29.5
2015-09-06 01:39:00,0.0,1.99348,0.00097,396.172,0.079,1.3011,0.0032,140.000,45.000,31740.55911,2.02008,402.642,35.503,45.067,45.000,0.00,0.10,-272.74,-272.80,-14,530,-944,25.7,31.1,7.3,25.5,31.9,7.6,5.73,2.05,5.8,29.5
2015-09-06 01:40:00,0.0,1.99283,0.00069,396.251,0.087,1.2959,0.0022,140.001,45.000,31738.94690,2.01935,402.693,35.501,45.067,45.000,0.00,0.10,-272.74,-272.81,-14,530,-944,25.7,30.9,7.3,25.5,31.8,7.5,5.73,1.97,5.8,29.5
2015-09-06 01:41:00,0.0,1.99532,0.00193,396.431,0.180,1.2971,0.0026,139.999,45.000,31739.48565,2.02173,402.873,35.501,45.067,45.000,0.00,0.10,-272.73,-272.80,-14,530,-944,25.7,31.0,7.3,25.5,31.8,7.5,5.73,1.79,5.7,29.5
2015-09-06 01:42:00,0.0,1.99702,0.00043,396.660,0.088,1.3051,0.0030,139.998,45.000,31739.89327,2.02378,403.152,35.498,45.067,45.000,0.00,0.10,-272.73,-272.79,-14,530,-944,25.7,31.2,7.4,25.5,32.0,7.6,5.73,1.78,5.8,29.5
2015-09-06 01:43:00,0.0,1.99755,0.00046,396.885,0.061,1.3040,0.0017,140.000,45.000,31739.23860,2.02426,403.382,35.496,45.067,45.000,0.00,0.10,-272.74,-272.79,-15,530,-944,25.7,31.1,7.4,25.5,32.0,7.6,5.73,1.96,5.8,29.5
2015-09-06 01:44:00,0.0,1.99745,0.00053,396.739,0.116,1.3021,0.0023,139.999,45.000,31739.62543,2.02417,403.224,35.499,45.067,45.000,0.00,0.10,-272.74,-272.80,-15,530,-944,25.7,31.1,7.3,25.5,32.0,7.6,5.73,2.05,5.7,29.5
2015-09-06 01:45:00,0.0,1.99755,0.00159,396.510,0.161,1.3009,0.0020,140.003,45.000,31740.65998,2.02437,402.993,35.500,45.067,45.000,0.00,0.10,-272.73,-272.80,-15,530,-944,25.7,31.0,7.3,25.5,31.9,7.6,5.73,1.91,5.8,29.5
2015-09-06 01:46:00,0.0,1.99482,0.00080,396.383,0.207,1.2976,0.0024,139.997,45.000,31738.44661,2.02130,402.832,35.500,45.067,45.000,0.00,0.10,-272.73,-272.80,-14,530,-944,25.7,31.0,7.3,25.5,31.9,7.6,5.73,1.76,5.8,29.5